Weather History for Alexandria, LA

Change the Weather History Date:

Thursday, November 8, 2012

  Actual Average Record
Temperature  
Mean Temperature 55 °F 60 °F  
Max Temperature 70 °F 72 °F 87 °F (1989)
Min Temperature 39 °F 48 °F 28 °F (1951)
Degree Days  
Heating Degree Days 10 6  
Month to date heating degree days 30 43  
Since 1 July heating degree days 125 116  
Growing Degree Days 4 (Base 50)    
Moisture  
Dew Point 38 °F    
Average Humidity 58    
Maximum Humidity 85    
Minimum Humidity 31    
Precipitation  
Precipitation 0.00 in 0.14 in 2.81 in (1944)
Month to date precipitation T 1.01  
Year to date precipitation 47.52 45.32  
Snow  
Snow 0.00 in - 0.00 in ()
Month to date snowfall 0.0  
Since 1 July snowfall 0.0  
Since 1 September snowfall 0.0  
Snow Depth 0.00 in    
Sea Level Pressure  
Sea Level Pressure 30.20 in    
Wind  
Wind Speed 4 mph (SE)    
Max Wind Speed 15 mph    
Max Gust Speed 18 mph    
Visibility 10 miles    
Events      
T = Trace of Precipitation, MM = Missing Value Source: NWS Daily Summary

Daily Weather History Graph

Daily Weather History Graph

Search for Another Location

Airport:

Trip Planner

Search our weather history database for the weather conditions in past years. The results will help you decide how hot, cold, wet, or windy it might be!

Date:

Astronomy

Nov. 08, 2012 Rise Set
Actual Time 6:32 AM CST 5:15 PM CST
Civil Twilight 6:06 AM CST 5:40 PM CST
Nautical Twilight 5:37 AM CST 6:09 PM CST
Astronomical Twilight 5:09 AM CST 6:38 PM CST
Moon 12:49 AM CST (11/8) 1:37 PM CST (11/8)
Length of Visible Light 11h 34m
Length of Day
10h 43m
Waning Crescent, 32% of the Moon is Illuminated
Nov 8
Waning Crescent
Nov 13
New
Nov 20
First Quarter
Nov 28
Full
Dec 6
Last Quarter

Hourly Weather History & Observations

Time (CST) Temp. Windchill Dew Point Humidity Pressure Visibility Wind Dir Wind Speed Gust Speed Precip Events Conditions
12:53 AM 46.9 °F - 37.0 °F 68% 30.17 in 10.0 mi ESE 4.6 mph - N/A   Clear
1:53 AM 44.1 °F 42.5 °F 36.0 °F 73% 30.18 in 10.0 mi South 3.5 mph - N/A   Clear
2:53 AM 41.0 °F - 36.0 °F 82% 30.18 in 10.0 mi Calm Calm - N/A   Clear
3:53 AM 43.0 °F - 37.0 °F 80% 30.19 in 10.0 mi Calm Calm - N/A   Clear
4:53 AM 39.9 °F - 36.0 °F 86% 30.20 in 10.0 mi Calm Calm - N/A   Clear
5:53 AM 39.0 °F - 35.1 °F 86% 30.23 in 10.0 mi Calm Calm - N/A   Clear
6:53 AM 39.9 °F - 36.0 °F 86% 30.24 in 10.0 mi Calm Calm - N/A   Clear
7:53 AM 48.9 °F - 39.9 °F 71% 30.26 in 10.0 mi ESE 6.9 mph - N/A   Clear
8:53 AM 54.0 °F - 37.0 °F 53% 30.28 in 10.0 mi SE 10.4 mph - N/A   Clear
9:53 AM 57.9 °F - 37.0 °F 46% 30.28 in 10.0 mi ESE 6.9 mph - N/A   Clear
10:53 AM 61.0 °F - 37.0 °F 41% 30.26 in 10.0 mi ESE 8.1 mph - N/A   Clear
11:53 AM 64.0 °F - 37.0 °F 37% 30.23 in 10.0 mi ESE 5.8 mph - N/A   Clear
12:53 PM 66.9 °F - 37.0 °F 33% 30.19 in 10.0 mi ESE 6.9 mph - N/A   Clear
1:53 PM 68.0 °F - 37.0 °F 32% 30.17 in 10.0 mi SSE 6.9 mph - N/A   Clear
2:53 PM 69.1 °F - 37.0 °F 31% 30.16 in 10.0 mi East 5.8 mph - N/A   Clear
3:53 PM 69.1 °F - 37.9 °F 32% 30.15 in 10.0 mi East 6.9 mph - N/A   Clear
4:53 PM 66.0 °F - 39.0 °F 37% 30.16 in 10.0 mi SSE 3.5 mph - N/A   Clear
5:53 PM 57.0 °F - 42.1 °F 57% 30.16 in 10.0 mi ESE 4.6 mph - N/A   Clear
6:53 PM 57.0 °F - 41.0 °F 55% 30.17 in 10.0 mi Calm Calm - N/A   Clear
7:53 PM 53.1 °F - 39.9 °F 61% 30.17 in 10.0 mi Calm Calm - N/A   Clear
8:53 PM 52.0 °F - 41.0 °F 66% 30.18 in 10.0 mi SSE 4.6 mph - N/A   Clear
9:53 PM 48.0 °F - 41.0 °F 77% 30.17 in 10.0 mi SE 4.6 mph - N/A   Clear
10:53 PM 51.1 °F - 42.1 °F 71% 30.17 in 10.0 mi SSE 3.5 mph - N/A   Clear
11:53 PM 50.0 °F - 42.1 °F 74% 30.17 in 10.0 mi Calm Calm - N/A   Clear